Location: San Vito
(41.8833°N, 12.9833°E)
Time: 08:57:45
(UTC+00:00)

NOSS 3-4 (A) - Pass Details

Date: 17 November 2019
Orbit: 907 x 1306 km, 63.4° (Epoch: 02 December)

Event Time Altitude Azimuth Distance (km) Brightness Sun altitude
Exits shadow 04:41:05 - 327° (NNW) 3,117 5.7 -14.6°
Reaches altitude 10° 04:41:35 10° 327° (NNW) 2,944 5.6 -14.5°
Maximum altitude 04:48:40 76° 54° (NE) 1,204 4.1 -13.3°
Drops below altitude 10° 04:56:25 10° 140° (SE) 3,210 7.1 -11.9°
Sets 04:59:18 0° 142° (SE) 4,213 7.8 -11.3°
